• Em Portugal
  • Lista de países
  • Para 7 dias
  • Temperatura da água
  • Mapas de satélite
  • Mapa do tempo
  • Widgets de tempo
  • user-avatar
    Iniciar Sessão

    Previsão horária em Oruro

    Hoje, 16 Novembro, Sexta-feira

    Tempo Temperatura Precipitação Vento Pressão Humidade
    00:00 +11°C° 0 mm 4 m/s 477 mmHg 56%
    01:00 +11°C° 0 mm 3 m/s 477 mmHg 56%
    02:00 +12°C° 0 mm 2 m/s 477 mmHg 56%
    03:00 +10°C° 0 mm 2 m/s 476 mmHg 58%
    04:00 +10°C° 0 mm 2 m/s 476 mmHg 60%
    05:00 +10°C° 0 mm 2 m/s 476 mmHg 62%
    06:00 +10°C° 0 mm 2 m/s 476 mmHg 58%
    07:00 +12°C° 0 mm 2 m/s 477 mmHg 54%
    08:00 +13°C° 0 mm 2 m/s 478 mmHg 50%
    09:00 +14°C° 0 mm 2 m/s 478 mmHg 44%
    10:00 +16°C° 0 mm 3 m/s 479 mmHg 38%
    11:00 +17°C° 0 mm 3 m/s 480 mmHg 32%
    12:00 +18°C° 0 mm 4 m/s 480 mmHg 31%
    13:00 +19°C° 0 mm 4 m/s 480 mmHg 30%
    14:00 +19°C° 0 mm 5 m/s 479 mmHg 28%
    15:00 +19°C° 0.1 mm 6 m/s 479 mmHg 31%
    16:00 +17°C° 0.1 mm 7 m/s 478 mmHg 34%
    17:00 +17°C° 0.1 mm 8 m/s 478 mmHg 37%
    18:00 +15°C° 0.1 mm 8 m/s 477 mmHg 44%
    19:00 +12°C° 0.1 mm 8 m/s 476 mmHg 51%
    20:00 +11°C° 0.1 mm 8 m/s 476 mmHg 58%
    21:00 +10°C° 0.4 mm 7 m/s 476 mmHg 60%
    22:00 +10°C° 0.4 mm 6 m/s 477 mmHg 62%
    23:00 +9°C° 0.4 mm 5 m/s 477 mmHg 64%

    Amanhã, 17 Novembro, Sábado

    Tempo Temperatura Precipitação Vento Pressão Humidade
    00:00 +10°C° 0.1 mm 4 m/s 477 mmHg 64%
    01:00 +10°C° 0.1 mm 4 m/s 476 mmHg 64%
    02:00 +10°C° 0.1 mm 3 m/s 476 mmHg 63%
    03:00 +10°C° 0.1 mm 3 m/s 476 mmHg 64%
    04:00 +10°C° 0.1 mm 2 m/s 476 mmHg 64%
    05:00 +10°C° 0.1 mm 2 m/s 476 mmHg 65%
    06:00 +10°C° 0 mm 2 m/s 476 mmHg 62%
    07:00 +10°C° 0 mm 2 m/s 477 mmHg 60%
    08:00 +12°C° 0 mm 2 m/s 477 mmHg 57%
    09:00 +13°C° 0.1 mm 2 m/s 478 mmHg 51%
    10:00 +14°C° 0.1 mm 2 m/s 479 mmHg 44%
    11:00 +16°C° 0.1 mm 2 m/s 480 mmHg 37%
    12:00 +16°C° 0.3 mm 2 m/s 479 mmHg 36%
    13:00 +17°C° 0.3 mm 2 m/s 479 mmHg 35%
    14:00 +17°C° 0.3 mm 2 m/s 478 mmHg 34%
    15:00 +17°C° 0.4 mm 2 m/s 478 mmHg 36%
    16:00 +16°C° 0.4 mm 3 m/s 477 mmHg 38%
    17:00 +16°C° 0.4 mm 3 m/s 477 mmHg 40%
    18:00 +16°C° 0.1 mm 3 m/s 477 mmHg 44%
    19:00 +14°C° 0.1 mm 4 m/s 477 mmHg 47%
    20:00 +13°C° 0.1 mm 4 m/s 477 mmHg 51%
    21:00 +13°C° 0 mm 4 m/s 477 mmHg 54%
    22:00 +12°C° 0 mm 3 m/s 477 mmHg 56%
    23:00 +12°C° 0 mm 3 m/s 477 mmHg 59%

    Depois de amanhã, 18 Novembro, Domingo

    Tempo Temperatura Precipitação Vento Pressão Humidade
    00:00 +11°C° 0 mm 3 m/s 477 mmHg 61%
    01:00 +12°C° 0 mm 2 m/s 476 mmHg 64%
    02:00 +10°C° 0 mm 2 m/s 475 mmHg 66%
    03:00 +10°C° 0 mm 2 m/s 475 mmHg 67%
    04:00 +9°C° 0 mm 2 m/s 475 mmHg 69%
    05:00 +10°C° 0 mm 1 m/s 475 mmHg 70%
    06:00 +11°C° 0 mm 1 m/s 476 mmHg 63%
    07:00 +12°C° 0 mm 2 m/s 476 mmHg 56%
    08:00 +13°C° 0 mm 2 m/s 477 mmHg 49%
    09:00 +14°C° 0 mm 2 m/s 478 mmHg 44%
    10:00 +15°C° 0 mm 2 m/s 479 mmHg 39%
    11:00 +17°C° 0 mm 2 m/s 480 mmHg 34%
    12:00 +17°C° 0.2 mm 3 m/s 479 mmHg 34%
    13:00 +18°C° 0.2 mm 4 m/s 479 mmHg 34%
    14:00 +17°C° 0.2 mm 5 m/s 479 mmHg 35%
    15:00 +16°C° 0.4 mm 6 m/s 478 mmHg 40%
    16:00 +15°C° 0.4 mm 7 m/s 477 mmHg 46%
    17:00 +14°C° 0.4 mm 7 m/s 476 mmHg 52%
    18:00 +12°C° 0.6 mm 7 m/s 476 mmHg 57%
    19:00 +11°C° 0.6 mm 8 m/s 476 mmHg 63%
    20:00 +10°C° 0.6 mm 8 m/s 476 mmHg 68%
    21:00 +10°C° 0.2 mm 7 m/s 476 mmHg 68%
    22:00 +9°C° 0.2 mm 6 m/s 477 mmHg 68%
    23:00 +9°C° 0.2 mm 5 m/s 477 mmHg 68%

    19 Novembro, Segunda-feira

    Tempo Temperatura Precipitação Vento Pressão Humidade
    00:00 +9°C° 0.6 mm 5 m/s 477 mmHg 70%
    01:00 +10°C° 0.6 mm 4 m/s 476 mmHg 72%
    02:00 +8°C° 0.6 mm 4 m/s 476 mmHg 73%
    03:00 +9°C° 0.8 mm 3 m/s 476 mmHg 74%
    04:00 +9°C° 0.8 mm 3 m/s 475 mmHg 74%
    05:00 +9°C° 0.8 mm 3 m/s 475 mmHg 75%
    06:00 +9°C° 0.7 mm 3 m/s 476 mmHg 74%
    07:00 +9°C° 0.7 mm 3 m/s 476 mmHg 73%
    08:00 +9°C° 0.7 mm 3 m/s 477 mmHg 72%
    09:00 +9°C° 0.9 mm 3 m/s 477 mmHg 70%
    10:00 +10°C° 0.9 mm 3 m/s 477 mmHg 69%
    11:00 +10°C° 0.9 mm 3 m/s 477 mmHg 67%
    12:00 +10°C° 0.8 mm 4 m/s 477 mmHg 63%
    13:00 +11°C° 0.8 mm 4 m/s 477 mmHg 60%
    14:00 +11°C° 0.8 mm 4 m/s 476 mmHg 56%
    15:00 +11°C° 0.2 mm 4 m/s 476 mmHg 55%
    16:00 +11°C° 0.2 mm 3 m/s 476 mmHg 53%
    17:00 +11°C° 0.2 mm 3 m/s 476 mmHg 51%
    18:00 +11°C° 0 mm 3 m/s 476 mmHg 56%
    19:00 +10°C° 0 mm 3 m/s 476 mmHg 60%
    20:00 +10°C° 0 mm 3 m/s 476 mmHg 64%
    21:00 +9°C° 0 mm 2 m/s 476 mmHg 66%
    22:00 +9°C° 0 mm 2 m/s 476 mmHg 67%
    23:00 +10°C° 0 mm 1 m/s 476 mmHg 68%

    20 Novembro, Terça-feira

    Tempo Temperatura Precipitação Vento Pressão Humidade
    00:00 +9°C° 0.1 mm 2 m/s 476 mmHg 70%
    01:00 +8°C° 0.1 mm 2 m/s 475 mmHg 71%
    02:00 +8°C° 0.1 mm 2 m/s 475 mmHg 73%
    03:00 +8°C° 0.1 mm 2 m/s 475 mmHg 73%
    04:00 +8°C° 0.1 mm 2 m/s 475 mmHg 73%
    05:00 +8°C° 0.1 mm 2 m/s 475 mmHg 74%
    06:00 +8°C° 0 mm 2 m/s 475 mmHg 70%
    07:00 +9°C° 0 mm 2 m/s 476 mmHg 67%
    08:00 +9°C° 0 mm 2 m/s 477 mmHg 64%
    09:00 +10°C° 0 mm 2 m/s 477 mmHg 59%
    10:00 +12°C° 0 mm 3 m/s 478 mmHg 53%
    11:00 +13°C° 0 mm 3 m/s 478 mmHg 48%
    12:00 +14°C° 0.1 mm 4 m/s 478 mmHg 46%
    13:00 +14°C° 0.1 mm 5 m/s 478 mmHg 45%
    14:00 +15°C° 0.1 mm 6 m/s 478 mmHg 44%
    15:00 +15°C° 0.1 mm 7 m/s 478 mmHg 46%
    16:00 +14°C° 0.1 mm 7 m/s 477 mmHg 48%
    17:00 +14°C° 0.1 mm 7 m/s 477 mmHg 50%
    18:00 +12°C° 0 mm 7 m/s 476 mmHg 54%
    19:00 +11°C° 0 mm 7 m/s 476 mmHg 59%
    20:00 +9°C° 0 mm 7 m/s 476 mmHg 63%
    21:00 +9°C° 0 mm 6 m/s 476 mmHg 65%
    22:00 +9°C° 0 mm 6 m/s 476 mmHg 67%
    23:00 +8°C° 0 mm 5 m/s 477 mmHg 68%

    21 Novembro, Quarta-feira

    Tempo Temperatura Precipitação Vento Pressão Humidade
    00:00 +8°C° 0 mm 4 m/s 476 mmHg 69%
    01:00 +8°C° 0 mm 4 m/s 476 mmHg 70%
    02:00 +8°C° 0 mm 3 m/s 475 mmHg 71%
    03:00 +8°C° 0.1 mm 3 m/s 475 mmHg 71%
    04:00 +8°C° 0.1 mm 3 m/s 475 mmHg 72%
    05:00 +8°C° 0.1 mm 2 m/s 476 mmHg 72%
    06:00 +8°C° 0.2 mm 2 m/s 476 mmHg 71%
    07:00 +9°C° 0.2 mm 2 m/s 477 mmHg 69%
    08:00 +9°C° 0.2 mm 2 m/s 477 mmHg 68%
    09:00 +10°C° 0.2 mm 2 m/s 477 mmHg 63%
    10:00 +11°C° 0.2 mm 3 m/s 478 mmHg 59%
    11:00 +12°C° 0.2 mm 3 m/s 478 mmHg 55%
    12:00 +13°C° 0.2 mm 3 m/s 478 mmHg 52%
    13:00 +13°C° 0.2 mm 3 m/s 478 mmHg 48%
    14:00 +14°C° 0.2 mm 3 m/s 478 mmHg 45%
    15:00 +14°C° 0.2 mm 3 m/s 477 mmHg 46%
    16:00 +14°C° 0.2 mm 3 m/s 477 mmHg 48%
    17:00 +14°C° 0.2 mm 3 m/s 476 mmHg 49%
    18:00 +13°C° 0.6 mm 3 m/s 476 mmHg 54%
    19:00 +12°C° 0.6 mm 3 m/s 476 mmHg 59%
    20:00 +11°C° 0.6 mm 3 m/s 476 mmHg 64%
    21:00 +11°C° 0.8 mm 3 m/s 476 mmHg 66%
    22:00 +10°C° 0.8 mm 2 m/s 476 mmHg 68%
    23:00 +10°C° 0.8 mm 2 m/s 476 mmHg 70%
    Mostrar mais